Location: Buckland
(65.9785°N, 161.1281°W)
Time: 20:25:10
(UTC+00:00)

PRISM - Pass Details

Date: 26 January 2021
Orbit: 565 x 584 km, 98.2° (Epoch: 06 March)

Event Time Altitude Azimuth Distance (km) Brightness Sun altitude
Rises 18:09:50 0° 36° (NE) 2,787 ? -9.8°
Reaches altitude 10° 18:13:47 10° 357° (N) 1,891 ? -9.4°
Maximum altitude 18:14:35 11° 346° (NNW) 1,860 ? -9.3°
Drops below altitude 10° 18:15:23 10° 335° (NNW) 1,894 ? -9.3°
Enters shadow 18:16:08 - 325° (NW) 1,982 ? -9.2°
